Flag for Poland Weather past 2 weeks in Tychy, Poland

Now
66 °F

Clear.


Feels Like: 66 °F
Forecast: 69 / 89 °F
Wind: 2 mph from North

Location: Katowice Airport

Current Time: Aug 4, 2015 at 2:14:44 AM

Latest Report: Aug 4, 2015 at 1:30 AM


Visibility: 10 mi

Pressure: 30.09 "Hg

Humidity: 73%

Dew point: 57 °F

Location of TychyLocation

Historic Weather in Tychy — Graph

°F

Tychy temperature yesterday

Maximum temperature yesterday: 86 °F (at 3:00 PM)
Minimum temperature yesterday: 52 °F (at 5:00 AM)
Average temperature yesterday: 72 °F

Past Weeks' High & Low Weather Summary

 TemperatureHumidityPressure
High91 °F (Jul 25, 1:00 PM)100% (Jul 22, 4:00 AM)30.15 "Hg (Jul 22, 4:00 AM)
Low41 °F (Jul 31, 3:30 AM)24% (Aug 1, 2:00 PM)29.65 "Hg (Jul 27, 6:30 PM)
Average68 °F61%29.93 "Hg
* Reported Jul 20 1:00 AM — Aug 4 1:00 AM, Tychy, Weather by CustomWeather, © 2015

Note: Actual official high and low records may vary slightly from our data, if they occured in-between our weather recording intervals... More about our weather records

Advertising

Tychy weather history for previous 24 hours

 ConditionsComfort  
Time TempWeatherWind HumidityBarometerVisibility
1:00 AM
Tue, Aug 4
66 °FClear.2 mph73%30.09 "Hg10 mi
12:30 AM68 °FClear.3 mph69%30.09 "Hg10 mi
12:00 AM68 °FClear.2 mph69%30.09 "Hg10 mi
11:30 PM
Mon, Aug 3
68 °FClear.1 mph69%30.09 "Hg10 mi
11:00 PM66 °FClear.1 mph73%30.09 "Hg10 mi
10:30 PM68 °FClear.2 mph69%30.09 "Hg10 mi
10:00 PM68 °FClear.1 mph69%30.09 "Hg10 mi
9:30 PM72 °FPassing clouds.5 mph61%30.09 "HgN/A
9:00 PM75 °FSunny.6 mph54%30.09 "Hg10 mi
8:30 PM77 °FSunny.8 mph54%30.09 "Hg10 mi
8:00 PM79 °FPassing clouds.9 mph51%30.07 "HgN/A
7:30 PM82 °FSunny.9 mph42%30.07 "Hg10 mi
7:00 PM86 °FPassing clouds.8 mph35%30.07 "HgN/A
6:30 PM86 °FSunny.5 mph31%30.07 "Hg10 mi
6:00 PM86 °FPassing clouds.6 mph29%30.07 "HgN/A
5:30 PM86 °FPassing clouds.5 mph29%30.07 "HgN/A
5:00 PM86 °FPassing clouds.8 mph29%30.07 "HgN/A
4:30 PM86 °FPassing clouds.8 mph29%30.09 "HgN/A
4:00 PM86 °FPassing clouds.6 mph29%30.09 "HgN/A
3:30 PM86 °FSunny.5 mph29%30.09 "Hg10 mi
3:00 PM86 °FPassing clouds.7 mph29%30.09 "HgN/A
2:30 PM84 °FPassing clouds.8 mph31%30.09 "HgN/A
2:00 PM84 °FSunny.7 mph31%30.12 "Hg10 mi
1:30 PM84 °FSunny.9 mph29%30.12 "Hg10 mi
1:00 PM84 °FPassing clouds.9 mph29%30.12 "HgN/A
12:30 PM84 °FPassing clouds.7 mph29%30.12 "HgN/A
12:00 PM82 °FPassing clouds.8 mph30%30.12 "HgN/A
11:30 AM82 °FSunny.3 mph30%30.12 "Hg10 mi
11:00 AM81 °FSunny.5 mph34%30.12 "Hg10 mi
10:30 AM79 °FSunny.2 mph37%30.12 "Hg10 mi
10:00 AM77 °FSunny.2 mph42%30.12 "Hg10 mi
9:30 AM75 °FSunny.2 mph44%30.12 "Hg10 mi
9:00 AM73 °FSunny.2 mph53%30.12 "Hg10 mi
8:30 AM68 °FSunny.2 mph69%30.12 "Hg10 mi
8:00 AM66 °FSunny.2 mph73%30.12 "Hg10 mi
7:30 AM61 °FSunny.2 mph83%30.12 "Hg10 mi
7:00 AM55 °FSunny.3 mph94%30.12 "Hg10 mi
6:30 AM55 °FSunny.2 mph88%30.12 "Hg10 mi
6:00 AM52 °FClear.2 mph94%30.12 "Hg10 mi
5:30 AM54 °FPassing clouds.3 mph94%30.12 "HgN/A
5:00 AM52 °FClear.3 mph94%30.12 "Hg10 mi
4:30 AM54 °FClear.2 mph94%30.12 "Hg10 mi
4:00 AM54 °FClear.2 mph94%30.12 "Hg10 mi
3:30 AM54 °FClear.2 mph94%30.12 "Hg10 mi
3:00 AM55 °FClear.2 mph88%30.12 "Hg10 mi
2:30 AM59 °FClear.6 mph82%30.12 "Hg10 mi
2:00 AM57 °FClear.2 mph88%30.12 "Hg10 mi
Weather by CustomWeather, © 2015

See weather overviewHow to use our weather pages